{"data":{"norad_id":45405,"intl_designator":"2020-019AX","name":"STARLINK-1263","alt_names":[],"object_type":"PAYLOAD","status":"ACTIVE","operator":null,"country":"US","launch_date":"2020-03-18","launch_site_code":"AFETR","launch_vehicle":null,"mission":null,"orbit_class":"UNKNOWN","rcs_meters":null,"size_class":null,"mass_kg":null,"dimensions":null,"purposes":["comms"],"wikipedia_slug":null,"has_3d_model":false,"image_url":null,"decayed_at":null,"tle_current":{"epoch":"2026-05-25T02:43:48.222048Z","epoch_age_seconds":61878,"freshness":"FRESH","line1":"1 45405U 20019AX  26145.11375257  .00031818  00000+0  97191-3 0  9999","line2":"2 45405  53.1565 133.6816 0004367  53.1323 307.0079 15.33632963341689","mean_motion":15.33632963,"eccentricity":0.0004367,"inclination_deg":53.1565,"raan_deg":133.6816,"arg_perigee_deg":53.1323,"mean_anomaly_deg":307.0079,"bstar":0.00097191,"rev_number":34168,"period_min":93.894695454586,"perigee_km":461.99559501747,"apogee_km":467.97237688661,"semimajor_km":6843.120985952,"source":"CELESTRAK","updated_at":"2026-05-25T13:38:16.418925Z"}}}